Wind_Speed
55 56 56 62 58 57 56 54 53 54 53 47 50 48 46 43 41 41 41 44 44 46 49 51 51 50 53 56 59 60 61 62 63 64 65 68 72 76 77 79 82 84 86 88
57 55 63 57 57 58 56 55 53 54 50 46 43 46 46 44 43 43 42 42 45 47 51 50 50 51 50 53 56 60 62 63 63 64 66 68 70 72 75 79 82 83 86 90
59 63 62 58 57 57 56 48 54 48 48 44 45 45 49 48 44 44 45 44 44 45 50 51 49 50 50 51 52 56 59 60 61 63 65 66 69 72 75 78 82 85 89 93
62 60 62 66 61 61 59 61 63 58 52 48 44 43 50 48 43 43 45 45 45 45 49 51 49 48 48 48 50 52 54 56 58 61 64 66 69 72 76 79 82 86 92 96
68 65 60 60 65 63 63 65 67 62 60 57 48 41 44 46 47 48 45 45 47 42 45 48 49 48 47 46 47 48 51 53 57 59 63 66 69 72 76 79 82 90 93 94
72 69 65 63 66 66 65 65 65 61 57 54 54 54 47 49 51 52 50 50 51 49 46 46 48 48 47 47 47 48 51 53 56 60 64 67 69 72 76 79 86 91 92 93
76 73 71 69 69 67 65 68 64 60 62 55 56 55 45 54 55 56 52 53 52 51 51 49 47 47 48 47 49 51 53 57 58 60 63 66 68 72 76 80 87 90 89 84
79 76 74 73 73 70 68 67 69 63 58 59 58 52 48 50 54 59 54 53 55 56 56 52 50 47 49 50 50 51 52 54 58 61 63 66 70 73 77 84 86 84 78 76
80 85 76 76 78 79 74 70 70 69 65 64 60 56 54 55 59 60 58 58 55 54 52 51 51 50 48 50 52 53 54 56 59 62 64 67 69 74 80 84 83 79 74 75
78 84 88 81 77 77 77 76 75 72 67 64 63 61 56 62 61 61 62 59 57 53 50 48 50 51 51 52 53 53 55 57 59 61 62 66 70 76 79 81 79 75 72 69
84 81 84 88 85 80 78 78 79 76 71 65 63 58 61 65 68 66 65 62 59 53 49 50 53 53 52 52 54 54 55 55 55 57 62 66 71 75 77 77 73 70 66 61
89 87 82 85 88 87 86 78 76 77 73 70 67 61 67 66 68 70 69 65 59 56 52 52 49 48 49 49 51 51 50 51 54 59 63 68 70 73 74 70 67 61 57 55
94 89 89 86 84 86 86 85 83 78 76 72 72 60 65 64 68 69 65 61 58 57 57 53 48 50 48 47 46 46 49 51 55 59 65 66 68 70 66 64 61 57 52 51
101 96 91 87 86 84 84 86 85 85 76 67 64 65 67 70 69 69 68 63 62 61 63 56 50 50 48 48 48 49 50 52 55 61 62 64 66 62 58 56 52 50 50 52
105 101 98 94 90 88 86 83 82 81 79 77 67 63 65 70 72 72 70 66 65 63 60 52 48 47 49 48 48 48 49 51 56 58 60 61 60 53 51 51 50 49 50 49
102 106 103 99 96 91 90 87 82 76 75 72 67 65 64 68 69 68 69 67 62 59 60 50 50 49 46 45 46 47 48 52 54 55 55 56 57 48 48 48 50 46 44 44
98 104 107 103 102 100 93 83 81 80 75 74 68 67 73 72 68 67 66 62 57 60 56 53 52 49 46 45 46 49 51 51 52 53 51 52 52 47 47 47 50 48 43 41
94 98 109 109 107 104 91 89 85 81 79 75 69 69 69 68 66 63 63 58 57 62 54 53 49 48 46 48 49 49 49 48 50 51 48 50 49 46 46 46 47 48 43 37
94 101 101 108 111 103 97 93 91 85 84 80 77 74 72 70 67 63 65 62 62 59 56 55 51 47 46 47 48 48 48 48 48 47 45 48 48 45 44 45 42 43 41 37
96 98 101 101 105 107 99 96 93 90 87 85 82 79 78 73 67 67 65 65 62 59 56 52 51 48 47 47 48 48 49 48 45 44 43 46 47 45 41 44 43 41 41 38
96 97 99 98 97 98 99 97 93 91 88 88 85 81 79 76 72 70 68 64 60 54 52 53 50 49 48 48 48 47 48 46 43 43 44 45 48 43 42 39 42 41 40 39
91 93 96 97 93 90 93 93 93 93 88 85 82 79 74 71 70 67 64 61 57 53 52 53 52 48 50 48 48 49 46 44 42 44 47 47 48 46 43 41 41 39 41 40
90 91 93 91 87 88 93 94 94 91 88 83 80 76 71 68 64 61 60 59 58 54 54 52 48 53 53 52 51 49 43 44 44 46 48 51 51 46 44 43 43 40 38 39
84 87 90 86 86 84 82 84 84 87 87 82 76 71 65 61 61 61 59 59 58 52 51 55 44 54 55 51 49 47 44 46 47 47 49 52 50 47 44 44 43 43 42 39
78 82 84 82 84 82 78 78 78 78 82 80 75 71 67 63 61 59 61 54 50 56 44 47 53 61 57 52 51 50 46 47 49 50 52 53 50 49 45 45 46 45 44 42
74 77 79 80 81 79 76 73 67 64 71 76 76 71 65 62 60 59 55 53 58 52 51 54 58 58 57 55 55 53 51 51 52 55 56 56 52 50 50 46 47 48 46 44
Wind_Direction
229 230 227 229 227 233 238 237 239 246 238 249 243 245 246 248 250 254 258 258 259 260 260 260 262 263 261 259 259 260 259 260 262 264 265 266 268 269 271 273 274 277 279 280
224 223 224 223 225 228 229 233 236 236 237 236 244 250 249 250 253 256 261 262 263 261 262 261 264 265 264 262 262 262 262 264 266 267 269 271 273 274 274 275 279 280 282 282
226 227 227 222 223 229 229 226 234 231 237 238 241 249 253 251 254 260 262 265 266 266 266 266 267 269 267 265 264 263 264 266 269 271 272 273 274 275 277 281 284 286 286 285
232 228 231 227 224 224 229 230 231 228 233 236 240 249 253 251 255 256 261 266 265 263 264 266 267 271 270 270 268 267 266 266 268 272 274 275 277 278 282 284 287 288 288 288
229 230 229 229 226 223 227 230 235 233 236 239 239 240 255 257 260 258 260 263 266 267 269 267 266 269 271 271 270 271 271 271 273 276 277 279 281 283 284 287 288 288 291 293
226 230 231 228 226 226 224 229 232 234 237 235 239 242 246 256 255 254 260 264 266 269 273 274 271 270 271 272 271 271 271 274 277 280 281 283 284 285 287 290 291 292 295 296
224 228 230 231 224 227 231 229 231 234 239 226 233 242 238 249 251 255 263 267 267 268 271 273 274 271 272 272 272 273 275 278 282 281 282 285 287 289 291 293 293 296 298 301
223 224 229 231 231 231 230 234 233 232 232 233 235 240 242 246 251 255 260 266 270 273 274 271 272 271 272 274 275 276 277 278 280 283 286 289 290 293 295 294 298 301 304 301
226 223 225 228 233 234 232 236 236 235 234 232 237 242 245 248 247 253 260 265 270 273 275 271 270 270 272 274 275 277 279 282 284 287 289 290 293 296 297 299 304 307 306 301
227 226 226 227 228 235 237 238 239 236 235 240 242 242 247 244 247 254 260 262 270 271 273 269 271 270 271 273 275 277 279 282 286 288 289 292 296 299 301 305 310 308 304 303
227 227 228 230 229 228 232 237 241 242 241 241 240 244 245 246 253 256 258 265 269 272 272 273 275 275 272 274 276 278 280 283 285 288 292 297 301 303 306 311 309 307 305 303
229 226 226 230 231 233 234 233 238 244 246 243 242 245 244 248 254 258 260 263 268 273 275 276 273 273 272 273 275 278 281 284 288 291 296 302 305 308 312 312 308 308 307 304
230 228 227 228 231 234 235 237 238 239 241 243 245 244 245 247 254 259 261 262 269 273 273 276 276 274 272 274 276 279 282 287 290 295 301 306 308 311 314 313 313 313 314 314
230 229 229 228 230 232 235 237 239 241 241 242 245 244 244 248 251 253 258 262 268 270 274 276 280 279 275 271 274 279 285 289 293 299 304 306 308 315 314 319 319 323 322 320
231 230 230 230 230 231 232 234 237 240 241 243 240 241 244 246 249 251 255 259 265 269 272 274 280 281 277 274 277 281 286 290 296 301 304 307 311 317 318 328 330 327 324 319
231 231 231 231 231 232 233 234 235 239 240 242 241 243 246 246 247 250 254 259 262 267 269 275 279 280 275 275 278 282 286 291 297 299 306 310 314 316 321 330 336 331 325 320
231 231 230 230 233 233 233 235 236 237 240 241 242 242 246 249 250 253 256 260 264 265 269 274 274 274 273 274 277 281 287 292 295 300 306 311 316 316 318 327 333 338 330 327
231 230 231 231 232 233 234 234 235 236 239 241 240 243 247 250 253 257 259 259 259 262 267 270 273 270 269 272 277 282 287 291 294 300 309 312 316 315 314 321 331 336 338 337
229 227 229 230 232 233 232 234 236 236 239 241 242 242 247 249 253 258 257 256 259 265 267 269 273 271 269 272 276 282 285 289 293 299 310 314 315 314 315 322 329 332 338 343
227 227 227 229 229 231 232 234 235 237 239 240 243 244 245 249 252 249 254 257 260 263 267 270 271 269 269 270 273 278 283 287 291 297 304 313 315 314 314 316 324 327 333 338
225 225 226 227 228 227 230 233 235 237 239 242 244 246 247 246 249 252 252 255 258 261 263 266 268 268 267 267 271 276 280 285 290 296 304 309 312 309 312 313 318 325 327 331
225 225 226 226 227 226 227 231 233 234 235 238 241 243 244 246 247 246 249 251 253 253 257 259 264 265 265 267 269 272 278 284 290 297 303 308 311 307 313 311 312 317 320 323
223 223 224 224 225 224 226 228 230 234 235 236 238 240 241 242 242 242 243 246 248 250 254 259 255 259 263 265 268 271 277 284 289 295 301 305 307 305 307 312 308 310 312 315
223 221 222 224 225 225 226 228 230 232 234 234 235 236 237 237 240 240 240 242 243 247 248 252 254 254 259 266 266 270 275 282 286 293 297 303 304 301 300 306 305 303 306 307
222 220 220 220 223 225 224 225 226 229 232 233 234 235 236 238 238 238 239 239 239 237 248 255 247 251 259 265 267 271 274 280 285 290 294 299 299 298 296 299 305 299 299 303
220 218 217 217 221 223 225 226 229 231 230 231 232 233 234 234 236 235 236 234 235 232 231 238 244 256 260 264 267 271 274 279 285 288 291 297 294 295 294 296 300 301 294 297
Height
10510 10519 10520 10522 10531 10539 10545 10550 10554 10559 10563 10568 10573 10573 10576 10582 10584 10584 10587 10590 10592 10593 10594 10594 10594 10596 10597 10596 10597 10599 10598 10599 10598 10597 10595 10593 10589 10586 10583 10578 10573 10570 10566 10560
10497 10501 10502 10514 10520 10526 10533 10537 10542 10547 10549 10558 10563 10563 10567 10572 10572 10574 10576 10579 10582 10584 10580 10583 10583 10583 10585 10585 10585 10586 10586 10586 10585 10584 10582 10579 10574 10570 10566 10560 10555 10550 10546 10537
10482 10486 10492 10499 10506 10514 10519 10524 10529 10534 10536 10546 10553 10555 10558 10561 10562 10561 10564 10568 10571 10573 10569 10570 10573 10572 10571 10572 10574 10573 10573 10573 10572 10570 10568 10565 10560 10555 10549 10543 10536 10530 10521 10513
10469 10473 10478 10486 10492 10499 10507 10510 10513 10519 10525 10535 10541 10549 10547 10547 10552 10552 10553 10555 10560 10563 10559 10559 10561 10560 10559 10560 10561 10561 10561 10561 10560 10557 10554 10550 10546 10540 10534 10528 10520 10509 10498 10491
10453 10456 10464 10472 10477 10484 10491 10495 10501 10506 10514 10523 10531 10537 10534 10536 10539 10540 10545 10547 10546 10551 10549 10549 10549 10549 10549 10549 10549 10549 10548 10547 10546 10544 10540 10536 10531 10525 10518 10511 10502 10489 10481 10473
10439 10443 10451 10457 10462 10470 10474 10481 10487 10493 10502 10516 10515 10523 10532 10521 10523 10528 10534 10539 10539 10539 10539 10538 10539 10538 10537 10536 10537 10537 10536 10535 10533 10530 10526 10521 10516 10509 10502 10495 10483 10471 10462 10452
10421 10429 10435 10441 10448 10456 10462 10465 10472 10482 10491 10502 10499 10506 10521 10510 10513 10515 10522 10523 10526 10528 10528 10528 10528 10527 10525 10525 10525 10524 10523 10522 10519 10515 10511 10506 10501 10493 10486 10476 10464 10455 10443 10429
10404 10413 10419 10426 10434 10440 10444 10451 10461 10468 10477 10485 10488 10500 10503 10503 10505 10504 10509 10510 10512 10514 10516 10516 10516 10517 10515 10514 10513 10512 10510 10508 10505 10501 10496 10491 10484 10477 10468 10455 10446 10436 10424 10409
10384 10397 10402 10409 10415 10421 10431 10438 10442 10452 10460 10470 10479 10487 10489 10491 10492 10492 10496 10499 10502 10503 10503 10503 10504 10505 10505 10503 10501 10499 10496 10493 10490 10486 10481 10475 10469 10459 10448 10436 10427 10415 10404 10391
10369 10377 10385 10391 10399 10407 10415 10421 10425 10435 10446 10456 10466 10472 10478 10476 10475 10481 10485 10490 10491 10491 10491 10492 10492 10492 10491 10490 10489 10487 10484 10481 10477 10473 10467 10461 10453 10443 10432 10421 10409 10397 10386 10375
10347 10358 10368 10375 10388 10390 10397 10405 10410 10419 10431 10443 10452 10461 10462 10464 10463 10469 10473 10477 10479 10479 10479 10481 10480 10480 10478 10477 10476 10474 10472 10469 10465 10460 10454 10447 10439 10428 10417 10406 10393 10382 10370 10361
10323 10338 10351 10356 10365 10373 10382 10392 10396 10403 10419 10426 10435 10449 10450 10450 10450 10452 10460 10465 10467 10467 10467 10468 10469 10467 10466 10465 10464 10462 10460 10457 10453 10448 10441 10433 10423 10413 10403 10392 10379 10370 10359 10348
10305 10319 10327 10338 10347 10357 10367 10373 10378 10386 10397 10414 10421 10441 10433 10438 10437 10437 10444 10451 10454 10456 10453 10456 10457 10456 10455 10453 10452 10451 10449 10446 10441 10435 10427 10418 10409 10402 10391 10378 10365 10356 10346 10337
10279 10297 10312 10324 10331 10339 10349 10355 10363 10371 10389 10399 10412 10417 10420 10421 10424 10425 10429 10437 10441 10442 10440 10443 10443 10443 10443 10442 10441 10439 10437 10433 10428 10422 10414 10406 10399 10392 10380 10368 10356 10345 10335 10327
10258 10276 10288 10299 10310 10320 10329 10337 10346 10362 10372 10382 10392 10400 10403 10405 10407 10412 10418 10423 10429 10431 10427 10432 10431 10431 10430 10430 10429 10427 10425 10421 10417 10410 10404 10394 10387 10381 10370 10359 10347 10338 10328 10320
10237 10252 10264 10278 10289 10299 10309 10321 10337 10350 10358 10369 10379 10386 10386 10387 10393 10400 10403 10411 10418 10417 10414 10420 10419 10418 10418 10418 10418 10416 10414 10411 10406 10399 10394 10384 10377 10371 10362 10352 10343 10333 10323 10313
10210 10226 10241 10259 10264 10276 10292 10315 10323 10330 10343 10349 10367 10369 10361 10372 10382 10384 10390 10401 10404 10398 10404 10407 10406 10406 10407 10406 10406 10405 10403 10400 10395 10389 10384 10375 10368 10362 10355 10346 10337 10327 10316 10307
10190 10204 10216 10233 10240 10252 10289 10295 10304 10318 10323 10333 10349 10351 10354 10358 10367 10375 10381 10386 10387 10384 10394 10392 10393 10394 10394 10395 10395 10394 10392 10390 10384 10379 10373 10365 10360 10354 10347 10340 10331 10322 10313 10303
10164 10174 10190 10205 10221 10244 10262 10277 10285 10298 10305 10316 10327 10335 10338 10345 10353 10363 10364 10368 10370 10375 10378 10379 10380 10380 10382 10383 10383 10382 10381 10378 10373 10368 10363 10356 10351 10345 10339 10332 10326 10319 10310 10301
10138 10151 10167 10180 10201 10223 10240 10254 10265 10277 10288 10297 10305 10314 10323 10332 10342 10339 10348 10351 10356 10360 10363 10366 10367 10368 10371 10371 10372 10371 10369 10366 10363 10358 10354 10348 10342 10337 10331 10325 10320 10313 10305 10297
10112 10127 10143 10164 10179 10206 10220 10232 10247 10260 10270 10276 10287 10295 10305 10317 10323 10329 10333 10338 10342 10345 10349 10351 10353 10356 10358 10359 10360 10360 10358 10355 10352 10347 10343 10339 10334 10329 10324 10318 10311 10305 10299 10291
10096 10112 10125 10143 10165 10189 10204 10216 10227 10230 10245 10257 10266 10277 10288 10297 10306 10311 10317 10323 10328 10332 10335 10337 10340 10342 10344 10347 10347 10347 10347 10342 10341 10336 10332 10330 10325 10319 10315 10308 10304 10298 10292 10287
10075 10090 10107 10127 10158 10170 10176 10187 10199 10212 10227 10240 10251 10262 10272 10282 10289 10296 10303 10309 10313 10317 10321 10323 10327 10329 10331 10333 10333 10333 10334 10330 10329 10325 10321 10317 10314 10309 10304 10300 10295 10290 10285 10280
10055 10075 10092 10117 10138 10151 10163 10175 10188 10199 10210 10225 10237 10247 10257 10268 10275 10282 10288 10293 10299 10303 10307 10310 10313 10315 10318 10320 10319 10320 10321 10319 10316 10314 10310 10305 10302 10298 10294 10290 10286 10281 10277 10273
10043 10061 10081 10107 10120 10137 10149 10154 10164 10181 10195 10208 10222 10234 10243 10252 10260 10266 10271 10278 10283 10289 10294 10296 10300 10301 10305 10306 10306 10306 10308 10308 10304 10301 10298 10294 10290 10286 10282 10279 10275 10271 10268 10264
10029 10050 10073 10092 10107 10124 10136 10148 10162 10174 10184 10195 10208 10219 10229 10237 10244 10250 10257 10264 10269 10275 10281 10283 10285 10287 10290 10291 10291 10293 10294 10294 10292 10287 10285 10281 10278 10273 10269 10266 10263 10259 10256 10253